Powrót do katalogu

STARLINK-34039

AktywnyŁącznośćVLEO
NORAD 63946·PAYLOAD·🇺🇸 United States

Wystrzelony May 13, 2025 z Vandenberg Space Force Base

Loading…

Następne Przeloty (najbliższe 24 godziny)

TLE

ŚwieżeSource: CelesTrak SupGP

Epoka: Sep 14, 2026, 20:56 UTC

1 63946C 25098W   26257.87270833 -.00038040  00000+0 -13231-2 0  2577
2 63946  70.0000 155.6134 0003267 268.6289 198.1340 15.29603701    12

Śledź STARLINK-34039 w czasie rzeczywistym z AllMySat

Download on the App Store